AI7R Weather Reports


time (UTC)temp
C
wind
direction
speed
KPH
gust
KPH
rain 1hr
cm
rain 24hr
cm
rain mn
cm
humidity
%
barometer
mb
20260905093007 18 360 0.0 0.0 0.00 0.00 0.00 63 1014.8
20260905091507 18 360 0.0 0.0 0.00 0.00 0.00 63 1014.9
20260905084507 18 360 0.0 0.0 0.00 0.00 0.00 63 1014.9
20260905083007 18 360 0.0 0.0 0.00 0.00 0.00 62 1015.0
20260905081507 18 360 0.0 0.0 0.00 0.00 0.00 62 1015.1
20260905074507 18 360 0.0 0.0 0.00 0.00 0.00 61 1015.1
20260905073007 18 360 0.0 0.0 0.00 0.00 0.00 61 1015.2
20260905071507 18 360 0.0 0.0 0.00 0.00 0.00 61 1015.1
20260905070012 18 360 0.0 0.0 0.00 0.00 0.00 62 1015.1
20260905064507 18 360 0.0 0.0 0.00 0.00 0.00 62 1015.1
20260905063007 18 360 0.0 0.0 0.00 0.00 0.00 61 1015.0
20260905061507 18 360 0.0 0.0 0.00 0.00 0.00 61 1015.0
20260905060010 18 360 0.0 0.0 0.00 0.00 0.00 60 1015.1
20260905054507 18 360 0.0 0.0 0.00 0.00 0.00 59 1015.0
20260905053007 18 360 0.0 0.0 0.00 0.00 0.00 59 1014.9
20260905051506 18 360 0.0 0.0 0.00 0.00 0.00 58 1014.9
20260905050010 19 360 0.0 0.0 0.00 0.00 0.00 57 1014.9
20260905044507 19 360 0.0 0.0 0.00 0.00 0.00 57 1014.9
20260905043006 19 360 0.0 4.8 0.00 0.00 0.00 56 1015.0
20260905041506 19 360 0.0 0.0 0.00 0.00 0.00 56 1015.0
20260905040010 19 360 0.0 0.0 0.00 0.00 0.00 56 1014.9
20260905034507 19 360 0.0 0.0 0.00 0.00 0.00 54 1014.9
20260905033007 20 360 0.0 0.0 0.00 0.00 0.00 53 1014.8
20260905031507 20 360 0.0 0.0 0.00 0.00 0.00 52 1014.5
20260905030010 20 360 0.0 0.0 0.00 0.00 0.00 50 1014.4
20260905023007 21 360 0.0 0.0 0.00 0.00 0.00 48 1014.0
20260905021508 22 360 0.0 0.0 0.00 0.00 0.00 47 1013.8
20260905013007 23 360 0.0 6.4 0.00 0.00 0.00 44 1013.6
20260905011506 24 360 4.8 12.9 0.00 0.00 0.00 41 1013.6
20260905010011 24 360 3.2 11.3 0.00 0.00 0.00 41 1013.5
20260905003007 25 360 3.2 11.3 0.00 0.00 0.00 38 1013.5
20260905001507 25 360 4.8 19.3 0.00 0.00 0.00 40 1013.6
20260905000009 25 360 4.8 16.1 0.00 0.00 0.00 40 1013.5
20260904234506 25 360 4.8 19.3 0.00 0.00 0.00 38 1013.5
20260904233006 26 360 4.8 19.3 0.00 0.00 0.00 37 1013.6
20260904231505 27 360 4.8 19.3 0.00 0.00 0.00 35 1013.4
20260904230009 27 360 3.2 14.5 0.00 0.00 0.00 34 1013.6
20260904224506 27 360 4.8 16.1 0.00 0.00 0.00 34 1013.6
20260904223006 27 360 3.2 16.1 0.00 0.00 0.00 34 1013.8
20260904221506 27 360 6.4 24.1 0.00 0.00 0.00 36 1013.9
20260904220009 25 360 4.8 16.1 0.00 0.00 0.00 40 1013.9
20260904213005 26 360 4.8 16.1 0.00 0.00 0.00 41 1014.1
20260904211505 26 360 4.8 14.5 0.00 0.00 0.00 41 1014.2
20260904210009 25 360 4.8 16.1 0.00 0.00 0.00 42 1014.5
20260904204505 25 360 1.6 11.3 0.00 0.00 0.00 43 1014.5
20260904203006 25 360 3.2 14.5 0.00 0.00 0.00 43 1014.6
20260904200009 25 360 1.6 12.9 0.00 0.00 0.00 42 1015.0
20260904194505 25 360 4.8 19.3 0.00 0.00 0.00 43 1015.1
20260904193005 26 360 4.8 22.5 0.00 0.00 0.00 42 1015.2
20260904191505 26 360 6.4 19.3 0.00 0.00 0.00 41 1015.3
20260904190009 25 360 6.4 19.3 0.00 0.00 0.00 41 1015.5
20260904183005 25 360 4.8 17.7 0.00 0.00 0.00 46 1015.8
20260904181505 25 360 4.8 20.9 0.00 0.00 0.00 47 1015.9
20260904180008 23 175 4.8 16.1 0.00 0.00 0.00 52 1016.0
20260904174505 22 360 3.2 16.1 0.00 0.00 0.00 58 1016.1
20260904173005 22 360 3.2 12.9 0.00 0.00 0.00 58 1016.1
20260904170008 21 360 1.6 6.4 0.00 0.00 0.00 66 1016.1
20260904164505 21 360 1.6 9.7 0.00 0.00 0.00 67 1016.0
20260904163005 21 360 1.6 6.4 0.00 0.00 0.00 69 1015.9
20260904161508 21 269 1.6 8.0 0.00 0.00 0.00 71 1015.7
20260904160008 21 204 4.8 11.3 0.00 0.00 0.00 69 1015.6
20260904154505 20 360 3.2 11.3 0.00 0.00 0.00 76 1015.5
20260904151505 18 360 0.0 8.0 0.00 0.00 0.00 85 1015.4
20260904150009 18 360 0.0 3.2 0.00 0.00 0.00 87 1015.3
20260904143005 17 113 0.0 0.0 0.00 0.00 0.00 89 1015.2
20260904141505 17 113 0.0 0.0 0.00 0.00 0.00 90 1015.0
20260904134505 16 107 0.0 3.2 0.00 0.00 0.00 91 1014.6
20260904133005 16 360 0.0 6.4 0.00 0.00 0.00 92 1014.3
20260904131505 16 360 0.0 1.6 0.00 0.00 0.00 91 1014.1
20260904130008 16 360 0.0 0.0 0.00 0.00 0.00 89 1013.9
20260904124505 16 360 0.0 0.0 0.00 0.00 0.00 89 1013.8
20260904123005 16 360 0.0 0.0 0.00 0.00 0.00 88 1013.6
20260904121505 16 360 0.0 1.6 0.00 0.00 0.00 88 1013.6
20260904120008 16 180 0.0 0.0 0.00 0.00 0.00 88 1013.6
20260904114505 16 180 0.0 0.0 0.00 0.00 0.00 87 1013.5
20260904113005 16 360 0.0 0.0 0.00 0.00 0.00 86 1013.6
20260904111505 17 206 0.0 0.0 0.00 0.00 0.00 84 1013.5
20260904104505 17 206 0.0 0.0 0.00 0.00 0.00 82 1013.4
20260904101505 17 206 0.0 1.6 0.00 0.00 0.00 80 1013.2
20260904094504 17 360 0.0 4.8 0.00 0.00 0.00 79 1013.0